Weather History for PHNL - July, 2014

Change the Weather History Date:

Monday, July 14, 2014

  Actual Average Record
Temperature  
Mean Temperature 83 °F 81 °F  
Max Temperature 87 °F 88 °F 92 °F (1995)
Min Temperature 79 °F 74 °F 69 °F (1950)
Degree Days  
Heating Degree Days 0 0  
Month to date heating degree days 0 0  
Since 1 June heating degree days 0 0  
Since 1 July heating degree days 0 0  
Cooling Degree Days 18 16  
Month to date cooling degree days 238 224  
Year to date cooling degree days 2310 2182  
Since 1 June cooling degree days 701 680  
Growing Degree Days 33 (Base 50)    
Moisture  
Dew Point 71 °F    
Average Humidity 69    
Maximum Humidity 79    
Minimum Humidity 59    
Precipitation  
Precipitation T in 0.02 in 0.33 in (1957)
Month to date precipitation 0.07 0.19  
Year to date precipitation 10.62 8.02  
Snow  
Snow 0.00 in - - ()
Month to date snowfall 0.0  
Since 1 June snowfall 0.0  
Since 1 July snowfall 0.0  
Snow Depth 0.00 in    
Sea Level Pressure  
Sea Level Pressure 30.06 in    
Wind  
Wind Speed 9 mph (ENE)    
Max Wind Speed 20 mph    
Max Gust Speed 25 mph    
Visibility 10 miles    
Events      
T = Trace of Precipitation, MM = Missing Value Source: NWS Daily Summary

Daily Weather History Graph

Daily Weather History Graph

Search for Another Location

Airport or City:

Trip Planner

Search our weather history database for the weather conditions in past years. The results will help you decide how hot, cold, wet, or windy it might be!

Date:

Astronomy

Jul. 14, 2014 Rise Set
Actual Time 5:58 AM HST 7:16 PM HST
Civil Twilight 5:33 AM HST 7:41 PM HST
Nautical Twilight 5:04 AM HST 8:10 PM HST
Astronomical Twilight 4:34 AM HST 8:40 PM HST
Moon 9:24 PM HST (7/14) 8:28 AM HST (7/14)
Length of Visible Light 14h 07m
Length of Day
13h 18m
Waning Gibbous, 91% of the Moon is Illuminated
Jul 14
Waning Gibbous
Jul 18
Last Quarter
Jul 26
New
Aug 3
First Quarter
Aug 10
Full

Hourly Weather History & Observations

Time (HST) Temp. Heat Index Dew Point Humidity Pressure Visibility Wind Dir Wind Speed Gust Speed Precip Events Conditions
12:53 AM 80.1 °F 83.8 °F 72.0 °F 76% 30.04 in 10.0 mi NE 8.1 mph - N/A   Scattered Clouds
1:53 AM 79.0 °F - 72.0 °F 79% 30.04 in 10.0 mi ENE 5.8 mph - N/A   Scattered Clouds
2:26 AM 80.6 °F 84.6 °F 71.6 °F 74% 30.03 in 10.0 mi East 5.8 mph - N/A   Mostly Cloudy
2:33 AM 78.8 °F - 71.6 °F 78% 30.03 in 10.0 mi East 3.5 mph - N/A   Mostly Cloudy
2:53 AM 80.1 °F 83.8 °F 72.0 °F 76% 30.03 in 10.0 mi NNE 3.5 mph - N/A   Mostly Cloudy
3:53 AM 79.0 °F - 72.0 °F 79% 30.03 in 10.0 mi Calm Calm - N/A   Mostly Cloudy
4:53 AM 79.0 °F - 72.0 °F 79% 30.03 in 10.0 mi Calm Calm - N/A   Mostly Cloudy
5:53 AM 80.1 °F 83.8 °F 72.0 °F 76% 30.04 in 10.0 mi Calm Calm - N/A   Mostly Cloudy
6:00 AM 80.6 °F 84.6 °F 71.6 °F 74% 30.04 in 10.0 mi Calm Calm - N/A   Overcast
6:53 AM 80.1 °F 83.6 °F 71.1 °F 74% 30.07 in 10.0 mi East 5.8 mph - N/A   Mostly Cloudy
7:53 AM 82.0 °F 86.3 °F 71.1 °F 69% 30.08 in 10.0 mi ENE 5.8 mph - 0.00 in   Mostly Cloudy
8:53 AM 82.9 °F 87.5 °F 71.1 °F 67% 30.08 in 9.0 mi ENE 11.5 mph - N/A   Overcast
9:53 AM 84.9 °F 90.1 °F 71.1 °F 63% 30.07 in 10.0 mi ENE 13.8 mph - 0.00 in   Overcast
10:53 AM 86.0 °F 91.5 °F 71.1 °F 61% 30.07 in 10.0 mi ENE 15.0 mph 24.2 mph N/A   Mostly Cloudy
11:53 AM 84.0 °F 89.6 °F 72.0 °F 67% 30.07 in 10.0 mi ENE 12.7 mph 21.9 mph 0.00 in   Mostly Cloudy
12:53 PM 87.1 °F 93.6 °F 72.0 °F 61% 30.06 in 10.0 mi ENE 19.6 mph 24.2 mph 0.00 in   Overcast
1:19 PM 86.0 °F 91.8 °F 71.6 °F 62% 30.06 in 10.0 mi ENE 10.4 mph 18.4 mph 0.00 in   Overcast
1:53 PM 86.0 °F 92.2 °F 72.0 °F 63% 30.05 in 10.0 mi ENE 15.0 mph 23.0 mph 0.00 in   Mostly Cloudy
2:53 PM 86.0 °F 91.5 °F 71.1 °F 61% 30.04 in 10.0 mi ENE 13.8 mph 18.4 mph N/A   Mostly Cloudy
3:53 PM 84.9 °F 90.1 °F 71.1 °F 63% 30.04 in 10.0 mi NE 13.8 mph - N/A   Mostly Cloudy
4:53 PM 84.0 °F 89.6 °F 72.0 °F 67% 30.05 in 10.0 mi ENE 10.4 mph - N/A   Mostly Cloudy
5:53 PM 82.0 °F 86.7 °F 72.0 °F 71% 30.05 in 10.0 mi NE 12.7 mph - 0.00 in   Mostly Cloudy
6:53 PM 81.0 °F 84.4 °F 70.0 °F 69% 30.07 in 10.0 mi ENE 11.5 mph - N/A   Mostly Cloudy
7:53 PM 80.1 °F 82.9 °F 69.1 °F 69% 30.08 in 10.0 mi ENE 15.0 mph - N/A   Mostly Cloudy
8:53 PM 80.1 °F 82.9 °F 69.1 °F 69% 30.09 in 10.0 mi NE 13.8 mph - N/A   Scattered Clouds
9:53 PM 80.1 °F 82.7 °F 68.0 °F 67% 30.09 in 10.0 mi ENE 10.4 mph - N/A   Scattered Clouds
10:53 PM 80.1 °F 82.3 °F 66.9 °F 64% 30.09 in 10.0 mi ENE 17.3 mph 24.2 mph N/A   Scattered Clouds
11:53 PM 79.0 °F - 68.0 °F 69% 30.09 in 10.0 mi ENE 12.7 mph - N/A   Scattered Clouds